TimeEST,TemperatureF,Dew PointF,Humidity,Sea Level PressureIn,VisibilityMPH,Wind Direction,Wind SpeedMPH,Gust SpeedMPH,PrecipitationIn,Events,Conditions,WindDirDegrees,DateUTC
12:54 AM,30.9,27.0,85,30.61,10.0,SW,8.1,-,N/A,,Clear,220,2011-12-04 05:54:00
1:54 AM,30.9,27.0,85,30.60,10.0,SW,6.9,-,N/A,,Clear,220,2011-12-04 06:54:00
2:54 AM,32.0,28.0,85,30.60,10.0,SSW,8.1,-,N/A,,Clear,210,2011-12-04 07:54:00
3:54 AM,33.1,30.0,89,30.58,10.0,SSW,6.9,-,N/A,,Clear,200,2011-12-04 08:54:00
4:54 AM,32.0,30.0,92,30.58,10.0,SW,8.1,-,N/A,,Clear,230,2011-12-04 09:54:00
5:16 AM,33.8,30.2,87,30.55,10.0,SW,9.2,-,N/A,,Mostly Cloudy,230,2011-12-04 10:16:00
5:39 AM,33.8,30.2,87,30.55,10.0,SW,9.2,-,N/A,,Scattered Clouds,220,2011-12-04 10:39:00
5:54 AM,33.1,30.9,92,30.59,10.0,SW,8.1,-,N/A,,Clear,230,2011-12-04 10:54:00
6:22 AM,35.6,32.0,87,30.55,10.0,SW,9.2,-,N/A,,Mostly Cloudy,230,2011-12-04 11:22:00
6:54 AM,35.6,32.0,87,30.54,10.0,SSW,6.9,-,N/A,,Overcast,210,2011-12-04 11:54:00
7:54 AM,36.0,33.1,89,30.58,10.0,SSW,6.9,-,N/A,,Overcast,210,2011-12-04 12:54:00
8:54 AM,37.9,34.0,86,30.57,10.0,SSW,5.8,-,N/A,,Overcast,200,2011-12-04 13:54:00
9:49 AM,42.8,35.6,76,30.53,10.0,SW,11.5,-,N/A,,Scattered Clouds,220,2011-12-04 14:49:00
9:54 AM,42.1,35.1,76,30.56,10.0,SW,10.4,-,N/A,,Mostly Cloudy,220,2011-12-04 14:54:00
10:54 AM,44.6,35.6,71,30.50,10.0,SW,13.8,26.5,N/A,,Overcast,220,2011-12-04 15:54:00
11:54 AM,45.0,36.0,71,30.51,10.0,SSW,18.4,24.2,N/A,,Overcast,210,2011-12-04 16:54:00
12:22 PM,44.6,37.4,76,30.46,10.0,SSW,15.0,23.0,N/A,,Scattered Clouds,210,2011-12-04 17:22:00
12:54 PM,46.9,36.0,66,30.48,10.0,SSW,16.1,-,N/A,,Partly Cloudy,210,2011-12-04 17:54:00
1:54 PM,48.0,37.0,66,30.45,10.0,South,15.0,23.0,N/A,,Clear,190,2011-12-04 18:54:00
2:54 PM,48.9,36.0,61,30.44,10.0,SSW,15.0,21.9,N/A,,Clear,210,2011-12-04 19:54:00
3:54 PM,46.9,37.0,68,30.44,10.0,SW,12.7,-,N/A,,Clear,220,2011-12-04 20:54:00
4:54 PM,45.0,37.0,74,30.42,10.0,SW,11.5,20.7,N/A,,Clear,220,2011-12-04 21:54:00
5:54 PM,44.1,37.9,79,30.42,10.0,SW,10.4,-,N/A,,Clear,220,2011-12-04 22:54:00
6:54 PM,43.0,39.0,86,30.41,10.0,SW,8.1,-,N/A,,Clear,220,2011-12-04 23:54:00
7:54 PM,43.0,39.9,89,30.43,10.0,SW,15.0,24.2,N/A,,Clear,230,2011-12-05 00:54:00
8:26 PM,42.8,39.2,87,30.40,10.0,SW,15.0,-,N/A,,Mostly Cloudy,230,2011-12-05 01:26:00
8:50 PM,42.8,41.0,93,30.38,10.0,SW,15.0,-,N/A,,Scattered Clouds,220,2011-12-05 01:50:00
8:54 PM,43.0,41.0,93,30.40,10.0,SW,13.8,-,N/A,,Partly Cloudy,220,2011-12-05 01:54:00
9:54 PM,44.1,42.1,93,30.39,10.0,SW,17.3,23.0,N/A,,Clear,230,2011-12-05 02:54:00
10:22 PM,44.6,42.8,93,30.37,10.0,SW,16.1,-,N/A,,Scattered Clouds,230,2011-12-05 03:22:00
10:47 PM,44.6,42.8,93,30.37,10.0,WSW,18.4,27.6,N/A,,Mostly Cloudy,240,2011-12-05 03:47:00
10:54 PM,45.0,43.0,93,30.40,10.0,SW,17.3,27.6,N/A,,Mostly Cloudy,230,2011-12-05 03:54:00
11:20 PM,44.6,42.8,93,30.37,10.0,WSW,21.9,28.8,N/A,,Partly Cloudy,240,2011-12-05 04:20:00
11:54 PM,45.0,43.0,93,30.39,10.0,WSW,19.6,24.2,N/A,,Clear,240,2011-12-05 04:54:00